CAPE
210 556 1472 1290 1293 1602 1479 1572 1931 2150 2099 2104 1993 2112 1744 1667 1891 2052 2200 2121 2002 2124 1798 1459 1820 1965 1840 1595 1494 1980 2042 1933 1933 1720 1582 1492 1513 1806 1858 1645 1548 1120 1252
417 1122 1968 1521 1593 1727 1657 1910 2147 2206 2064 2199 1948 2213 2077 1818 2032 1983 1829 1971 1912 1973 1949 1620 1496 1727 1648 1507 1614 1593 1709 2491 2709 2124 1889 1825 1840 1936 1805 1600 1338 714 800
930 1425 1648 2190 1642 1740 1992 2099 2118 2192 1883 2529 2059 2264 2031 1757 1804 1961 2033 2068 1471 1261 1735 1690 1690 1711 1459 1025 1044 1166 1152 2166 2150 1899 1992 1355 1491 1918 1812 1861 1878 1806 1782
1095 1130 1425 2123 1767 2057 2141 2244 2073 2008 1982 2175 2052 1955 1903 1896 2074 2101 1953 1182 1097 1191 1586 1724 1480 1498 1467 1024 1335 1687 1599 2131 1736 1429 838 1034 1348 1912 1859 1982 1882 1802 1738
697 802 1389 2033 2063 2047 2050 2257 2267 2286 2324 2274 2063 1957 2050 1920 2119 1959 1440 2011 1851 1792 1936 1536 1454 1580 1772 1579 1277 1533 1729 1747 1629 1120 850 906 1275 1844 1917 1916 1677 1642 1745
875 1117 1884 1637 2021 2028 2062 2160 2264 2305 2242 2158 2132 2018 1993 1871 1817 1842 1871 2018 2021 1822 1538 1421 1355 1580 1617 1815 2428 1722 1797 1469 974 570 803 1449 1236 1969 1770 1978 1863 1811 1856
1159 1496 1684 2246 2064 1954 2049 2047 2231 2253 2249 2302 2093 2053 1993 1918 1975 2100 2132 2173 2154 2014 1690 1304 1090 1316 1422 1695 2686 2501 1244 781 109 309 604 1046 1423 2232 1919 1903 1882 1837 1950
1200 1438 1749 2150 1967 1858 1992 2202 2331 2312 2368 2418 2274 2186 2160 2167 2199 2155 2112 2025 2348 2234 1270 1145 998 1004 1109 1449 2085 2439 1331 704 264 265 441 706 1737 1365 803 847 995 1066 1199
1116 1152 1319 1516 1705 2039 2102 2250 2325 2221 2377 2397 2383 2139 2282 2308 2295 2224 2197 1775 1323 1194 1026 869 734 778 896 1038 1241 2692 1055 736 149 248 481 603 1523 896 817 806 784 897 974
990 984 1084 1234 1360 1475 1855 2264 2211 2303 2309 2398 2461 2333 2416 2435 2222 2136 2632 2426 1855 1438 1104 926 818 779 671 755 787 1716 1228 633 22 116 360 716 1130 673 614 642 697 764 913
663 769 925 1009 1062 1244 1568 1878 2205 2274 2402 2481 2370 2444 2263 1470 1631 1723 2203 2079 1955 1819 1536 1273 1000 880 1020 1188 1381 1316 1126 0 0 68 232 1027 1038 521 538 646 790 972 1092
451 617 556 670 884 1297 1834 1472 1445 1734 1637 1845 1891 1791 1236 1123 1078 1516 1704 1873 1946 1396 1399 1909 1842 1922 1718 781 857 1360 1118 41 0 48 277 1214 751 602 669 744 791 861 920
409 468 421 641 720 775 1452 1232 1331 1084 996 942 1007 1026 1102 1152 972 89 5 21 0 17 0 1 49 1824 147 196 277 697 22 0 104 385 875 1519 960 792 768 735 854 1038 1086
249 314 233 208 371 641 1009 1057 965 979 420 423 594 847 477 535 617 0 0 0 0 0 12 0 0 506 1347 1417 1196 487 0 0 0 579 1388 1783 1784 843 722 729 816 889 1030
69 130 234 75 227 664 994 828 891 711 0 171 783 922 856 108 364 7 0 2 46 129 276 259 126 445 884 599 538 318 0 0 0 206 450 1333 1562 1026 829 798 907 1073 1172
29 203 416 451 430 504 609 654 796 673 7 760 463 499 725 284 373 8 0 0 68 226 240 118 252 0 58 181 0 0 0 0 0 66 344 536 1501 1451 1181 1148 1136 1265 1430
35 118 200 303 843 670 396 389 540 492 648 545 67 522 604 321 286 76 35 143 251 492 500 327 224 88 432 233 30 0 0 0 0 13 206 351 666 1622 1402 1434 2117 2260 1807
30 38 127 390 254 334 503 489 228 405 892 523 0 396 790 193 2 58 77 238 365 10 1265 1112 664 1094 727 288 52 146 144 1 0 0 3 38 250 386 945 2253 2434 2384 2215
0 0 0 79 316 501 792 514 675 676 439 465 596 1172 924 1067 878 1121 885 665 658 875 202 509 422 625 550 249 239 305 392 337 107 2 6 6 34 158 107 612 2154 2196 2112
0 0 0 15 390 206 343 281 144 538 816 700 838 1034 1196 672 1262 1535 930 274 0 1055 1099 1302 1306 1511 1032 316 586 694 343 248 365 532 121 206 151 194 195 309 549 1338 2176
33 66 0 69 156 51 391 459 68 369 766 826 1113 1276 864 1095 1353 1194 1341 330 235 987 1313 1343 1314 1951 1343 608 655 662 171 223 418 494 628 771 529 567 392 491 491 628 738
30 132 100 67 154 172 421 583 456 384 786 572 620 1162 1369 839 1059 1105 1061 909 856 668 133 556 1837 1859 1342 410 1016 647 232 239 216 464 516 796 770 775 925 825 1372 1280 1185
92 291 186 146 194 569 461 229 175 393 433 564 721 753 779 1137 1091 848 573 571 311 37 0 29 1348 1853 1593 1395 1091 1097 715 536 331 79 170 304 258 400 651 1059 881 1185 1109
104 222 198 221 416 378 248 277 194 205 318 328 368 345 463 63 884 1016 177 501 124 0 54 452 805 1658 1440 1519 1309 687 128 436 870 384 188 267 266 248 279 392 382 826 685
171 233 313 313 423 494 243 223 239 142 111 384 281 291 91 125 697 1290 44 651 172 131 459 885 1338 1391 1635 1226 614 249 200 34 196 274 207 4 137 264 212 237 253 346 419
81 249 278 250 325 392 285 335 347 184 265 294 217 408 378 466 425 402 1053 843 613 237 8 47 1143 1388 1466 1370 400 0 0 15 75 326 79 0 7 126 247 170 153 204 273
CIN
-60 -47 -7 -21 -10 -1 -3 -8 0 0 0 0 0 0 0 0 0 0 0 0 0 0 0 0 0 0 0 0 0 0 0 -1 0 0 0 0 0 0 0 0 0 0 0
-77 -16 0 -3 0 0 -2 0 0 0 0 0 -1 0 0 0 0 0 0 0 0 0 0 0 0 0 0 0 0 0 0 0 0 0 0 0 0 0 0 0 0 -12 -3
-40 -3 -1 0 0 0 0 0 0 0 0 0 0 0 0 0 0 0 0 0 -2 -7 0 0 0 -1 -1 -8 -11 0 -3 0 0 0 0 -5 -2 0 0 0 0 0 0
-40 -25 -3 0 0 0 0 0 0 0 0 0 0 0 0 0 0 0 0 -2 -5 -5 0 0 -3 0 -1 -19 -12 -9 -2 0 0 -3 -41 -9 -1 0 0 0 0 0 0
-80 -60 -4 0 0 0 0 0 0 0 0 0 0 0 0 0 0 0 0 0 0 0 0 0 -2 -2 0 -3 -12 -11 -2 0 -2 -24 -50 -35 -6 -1 0 0 0 0 0
-55 -36 0 0 0 0 0 0 0 0 0 0 0 0 0 0 0 0 0 0 0 0 -2 -10 -13 -9 -14 -5 0 -6 -3 -12 -33 -79 -58 -5 -7 0 0 0 0 0 0
-18 -4 0 0 0 0 0 0 0 0 0 0 0 0 0 0 0 0 0 0 0 0 -11 -23 -23 -23 -17 -16 -2 -1 -15 -43 -214 -156 -86 -31 -4 0 0 0 0 0 0
-22 -5 -1 0 0 0 0 0 0 0 0 0 0 0 0 0 0 0 0 0 0 0 -33 -37 -38 -35 -31 -21 -3 -1 -14 -51 -155 -172 -133 -74 -3 -2 -26 -30 -18 -17 -5
-32 -17 -7 -2 -1 0 0 0 0 0 0 0 0 0 0 0 0 0 0 -3 -19 -27 -41 -51 -55 -51 -52 -32 -19 -1 -23 -53 -240 -194 -133 -101 0 -33 -46 -51 -62 -49 -37
-22 -23 -20 -13 -15 -10 -1 0 0 0 0 0 0 0 0 0 0 -1 0 0 -4 -28 -50 -60 -64 -58 -56 -45 -36 -8 -24 -86 -363 -255 -183 -94 -25 -70 -83 -85 -86 -78 -56
-35 -42 -34 -34 -34 -26 -11 -3 -1 0 0 0 -4 -1 -14 -48 -30 -18 -3 0 -17 -33 -44 -58 -64 -67 -62 -53 -33 -23 -30 0 0 -334 -237 -62 -48 -112 -122 -104 -81 -58 -46
-65 -47 -67 -84 -62 -28 0 -27 -32 -22 -38 -25 -31 -39 -73 -82 -77 -41 -31 -16 -12 -74 -69 -33 -32 -39 -55 -119 -112 -68 -69 -73 0 -378 -256 -61 -104 -136 -131 -121 -109 -108 -114
-80 -73 -91 -96 -94 -95 -43 -69 -59 -81 -88 -92 -73 -91 -81 -92 -107 -300 -115 -36 0 -313 0 -17 -25 -96 -192 -194 -171 -135 -172 0 -342 -261 -168 -64 -114 -145 -152 -156 -129 -98 -96
-100 -95 -111 -129 -122 -99 -94 -89 -99 -89 -159 -166 -141 -117 -168 -185 -172 0 0 0 0 -3 -35 0 0 -210 -130 -126 -117 -161 0 0 0 -269 -143 -74 -66 -163 -188 -183 -165 -156 -135
-125 -125 -109 -129 -118 -96 -91 -108 -112 -114 0 -214 -116 -95 -112 -281 -201 -402 0 -73 -294 -338 -293 -286 -312 -225 -168 -173 -163 -219 0 0 0 -430 -357 -145 -114 -167 -195 -192 -176 -146 -129
-132 -92 -89 -68 -72 -98 -112 -116 -103 -130 -18 -132 -182 -163 -144 -263 -226 -340 0 0 -309 -309 -304 -313 -280 0 -256 -247 0 0 0 0 0 -515 -426 -338 -160 -155 -175 -169 -172 -144 -127
-48 -117 -80 -83 -64 -76 -102 -134 -113 -129 -129 -162 -72 -156 -142 -246 -276 -328 -309 -267 -204 -232 -263 -286 -278 -240 -157 -217 -197 0 0 0 0 -539 -464 -468 -361 -166 -182 -173 -104 -92 -126
-129 -65 -79 -29 -98 -74 -63 -122 -122 -122 -101 -146 0 -188 -166 -244 -17 -303 -273 -182 -273 -26 -157 -191 -234 -132 -134 -207 -246 -220 -279 -20 0 0 -311 -567 -489 -407 -321 -137 -125 -114 -115
0 0 0 -96 -65 -86 -103 -120 -106 -104 -119 -140 -138 -92 -97 -103 -122 -114 -135 -170 -178 -211 -286 -256 -169 -160 -142 -162 -190 -199 -260 -288 -375 -200 -392 -512 -579 -518 -549 -395 -167 -151 -137
0 0 0 -33 -97 -134 -156 -175 -217 -137 -114 -122 -104 -78 -76 -100 -79 -99 -154 -214 0 -176 -167 -150 -122 -128 -113 -151 -107 -86 -216 -286 -259 -262 -407 -353 -456 -443 -441 -419 -360 -301 -188
-177 -127 0 -133 -109 -139 -100 -92 -135 -98 -84 -90 -82 -71 -74 -74 -80 -97 -122 -228 -289 -170 -186 -154 -121 -99 -101 -199 -153 -157 -251 -272 -211 -329 -261 -234 -271 -259 -319 -328 -336 -323 -282
-192 -114 -135 -130 -124 -104 -104 -105 -116 -117 -91 -104 -106 -72 -52 -64 -76 -118 -128 -154 -187 -191 -177 -221 -140 -104 -133 -236 -113 -178 -123 -197 -299 -316 -295 -199 -184 -214 -226 -200 -172 -201 -254
-177 -116 -125 -124 -125 -95 -116 -155 -170 -144 -141 -91 -93 -94 -103 -99 -77 -135 -172 -173 -230 -131 0 -213 -164 -110 -95 -149 -203 -112 -111 -76 -257 -372 -288 -329 -321 -332 -374 -375 -411 -356 -380
-167 -131 -128 -122 -108 -121 -134 -100 -100 -107 -87 -129 -132 -128 -121 -217 -95 -105 -188 -161 -232 0 -203 -194 -243 -130 -124 -111 -160 -253 -437 -292 -92 -94 -279 -366 -393 -440 -520 -489 -539 -444 -494
-162 -134 -113 -113 -100 -99 -125 -112 -116 -131 -164 -133 -148 -115 -202 -188 -98 -63 -179 -134 -203 -229 -187 -158 -121 -123 -103 -137 -198 -306 -322 -506 -411 -261 -161 -78 -452 -459 -551 -520 -557 -518 -517
-164 -142 -147 -132 -112 -118 -114 -114 -99 -135 -128 -144 -164 -131 -137 -130 -138 -163 -70 -112 -146 -200 -173 -81 -134 -90 -86 -135 -267 0 0 -223 -322 -255 -354 -29 -165 -459 -462 -540 -575 -559 -597
Wind_Speed
4 5 6 4 6 7 8 8 11 11 12 12 14 15 16 16 16 16 16 17 16 15 16 16 15 15 16 16 15 15 15 17 17 17 16 15 14 14 15 16 14 11 13
8 7 10 8 7 8 8 9 10 11 13 13 14 14 15 14 14 15 16 16 15 14 15 15 15 14 15 15 14 14 15 15 16 18 17 17 16 15 14 15 15 12 14
11 8 9 11 9 9 8 10 10 11 12 12 13 15 15 14 14 14 15 15 14 13 13 14 14 13 13 14 11 10 10 14 16 17 15 5 8 15 14 15 15 14 13
11 6 6 9 10 10 9 11 11 11 12 13 13 14 14 14 14 14 13 14 13 12 11 12 12 13 12 12 12 10 9 12 15 14 6 5 10 14 14 14 13 13 13
7 7 7 12 12 12 11 11 11 12 12 13 13 13 13 13 14 14 13 12 12 11 10 11 10 11 10 11 11 14 15 16 16 11 6 6 5 11 13 13 12 12 12
8 6 11 14 12 12 12 12 11 12 12 13 12 13 13 14 13 12 11 10 10 10 8 9 10 8 8 9 12 15 15 15 12 6 5 6 4 12 12 13 12 12 12
7 6 9 13 13 12 12 12 11 12 13 12 12 12 12 12 11 11 10 8 9 8 8 7 8 6 5 10 12 15 15 14 6 6 5 5 5 12 11 11 11 11 11
9 7 7 13 13 12 12 12 12 13 13 12 12 11 11 11 10 11 10 10 10 8 7 5 5 4 5 10 11 12 14 13 8 6 5 4 7 10 10 9 9 9 8
10 6 5 7 11 14 12 13 12 13 13 12 13 12 11 12 12 10 10 9 7 6 6 4 3 2 3 5 8 8 11 12 5 4 5 3 6 9 9 8 7 7 7
9 6 6 5 6 5 6 13 13 13 13 14 14 13 12 12 11 9 6 7 7 5 3 2 0 1 2 3 5 5 12 12 4 4 4 2 6 8 8 7 7 7 6
9 6 6 6 6 5 5 8 12 14 14 14 13 13 10 4 4 6 5 7 6 4 3 1 2 2 2 3 4 3 5 3 4 2 3 6 6 7 7 6 5 5 3
10 9 6 6 6 6 6 5 4 5 4 4 3 4 3 3 4 5 6 6 6 5 6 3 4 5 4 3 3 6 0 3 3 3 3 7 6 6 5 5 4 3 3
12 8 7 7 6 6 5 3 2 2 2 3 5 4 3 3 3 3 2 2 2 5 3 4 5 3 4 2 2 3 2 4 2 3 5 7 7 6 5 4 3 3 3
12 11 8 7 6 5 4 3 4 3 3 3 1 1 3 3 4 2 0 2 1 1 3 3 3 5 6 6 5 3 5 3 3 2 4 9 7 6 5 5 4 4 4
10 10 8 8 6 6 5 4 4 4 3 4 4 4 3 2 4 3 2 1 2 1 3 4 4 5 5 5 4 4 6 5 4 3 2 9 7 7 6 6 6 5 6
9 9 7 8 8 7 6 6 4 3 5 3 3 2 6 4 3 3 1 4 4 4 3 4 5 5 4 3 3 6 7 5 5 4 2 4 9 9 8 8 7 6 7
11 9 9 8 7 10 7 4 3 4 5 4 4 4 5 3 4 3 1 3 5 6 7 4 7 5 4 3 2 4 4 6 5 5 4 4 4 9 9 9 8 8 8
11 11 6 7 8 8 6 4 4 4 4 4 4 5 6 5 4 3 1 1 1 6 4 4 6 5 3 1 2 2 3 4 5 5 4 4 4 4 7 11 10 9 9
11 11 7 7 7 7 5 6 6 6 4 4 4 2 6 6 6 4 4 4 7 3 4 4 2 1 1 2 3 2 4 3 5 4 5 5 6 5 3 7 10 9 9
10 8 9 6 8 7 5 5 3 4 3 3 3 3 4 4 4 4 3 3 2 3 3 4 3 1 1 3 3 3 4 4 1 3 5 5 5 6 5 5 4 5 10
9 9 11 8 7 6 3 4 2 3 2 1 2 6 5 3 4 2 3 3 2 4 3 4 3 6 5 4 2 3 2 2 4 4 3 5 5 6 6 5 4 4 3
13 12 10 8 8 5 4 2 3 2 1 2 1 1 2 2 4 5 4 1 3 4 6 5 6 4 3 2 2 2 2 5 3 6 4 5 6 3 4 4 5 4 3
14 12 11 9 7 6 7 4 3 4 2 2 2 1 2 4 1 6 3 3 4 3 2 2 5 5 3 2 4 3 3 3 2 1 5 4 6 5 3 6 6 7 6
13 12 11 11 8 7 7 5 4 3 3 3 3 2 1 2 2 4 5 3 4 3 1 1 4 3 2 4 2 6 5 1 2 2 4 5 6 7 4 4 3 3 5
13 12 10 11 8 8 7 6 5 4 2 2 2 3 3 1 2 2 4 4 4 2 1 3 4 3 2 2 3 1 1 3 3 3 0 3 3 3 3 3 2 4 7
11 11 9 8 8 8 7 7 7 7 5 4 2 3 3 1 2 0 2 4 4 4 2 1 0 4 2 2 3 2 2 2 1 1 2 0 2 3 1 3 2 3 4
Wind_Direction
196 182 193 154 119 110 97 87 93 99 102 102 103 102 100 101 102 102 103 99 95 97 99 96 93 90 88 89 94 88 91 96 99 104 103 101 103 104 103 104 107 104 105
147 178 173 156 137 119 113 110 105 107 105 107 105 110 109 109 107 101 104 104 105 102 98 97 98 96 99 91 87 90 94 88 93 97 97 97 104 104 103 109 109 108 109
154 172 159 156 145 130 131 111 107 104 104 105 109 107 107 110 112 112 110 108 104 104 101 101 102 99 92 85 85 98 90 96 97 96 94 93 102 105 106 106 105 112 112
147 142 144 151 146 131 122 120 115 116 113 110 110 110 117 118 115 108 113 105 107 108 102 102 108 100 90 85 84 110 103 121 100 91 67 70 98 101 101 100 103 106 106
133 137 155 142 146 139 131 125 124 120 113 113 110 112 109 112 109 105 109 108 106 108 101 103 104 101 97 93 98 105 105 105 98 87 78 74 80 108 106 113 107 108 112
134 140 142 145 138 134 134 133 127 120 115 114 112 108 110 110 108 110 111 111 109 104 111 103 101 98 89 81 131 120 119 106 98 79 66 83 90 103 107 104 98 97 102
134 142 138 140 141 137 133 131 125 123 124 121 119 117 114 118 125 120 116 109 131 126 110 104 109 111 97 67 99 149 115 113 93 78 65 61 85 101 95 95 93 95 99
131 132 136 141 136 137 135 133 132 125 132 130 124 121 113 114 127 121 120 114 121 125 122 125 122 133 91 78 78 110 126 120 107 95 85 77 89 102 107 103 101 101 100
136 129 127 135 144 140 138 136 132 131 135 133 128 122 117 115 118 120 123 119 117 120 129 132 129 89 60 86 83 99 118 126 109 114 107 90 104 115 118 117 116 109 103
135 131 130 115 110 119 137 138 135 137 135 135 136 135 133 125 128 131 112 108 109 108 119 138 105 326 10 25 54 97 140 132 120 118 111 128 132 130 129 129 124 118 114
145 148 141 129 129 129 126 144 141 142 142 148 146 146 131 130 120 113 133 123 126 133 152 193 226 274 304 325 313 300 122 132 127 139 132 156 155 142 140 137 136 136 140
153 155 158 148 149 146 148 116 131 134 129 135 158 125 125 138 165 112 96 94 101 9 359 307 267 269 309 332 337 330 267 179 140 164 154 168 167 157 155 158 163 177 193
159 159 162 156 159 157 139 144 126 113 127 135 154 184 169 139 73 89 84 50 20 12 337 340 326 316 302 306 242 235 132 153 170 184 166 183 182 174 177 190 207 229 244
154 160 161 157 158 144 123 147 161 154 124 119 178 235 130 139 128 131 350 277 307 262 294 312 300 298 292 287 263 226 148 171 185 182 187 195 203 195 204 219 237 257 270
152 161 161 146 151 155 147 169 185 133 142 179 179 170 171 165 151 177 303 328 224 138 315 333 308 284 273 284 239 208 149 178 174 187 198 196 213 219 224 232 246 261 276
141 133 148 146 150 157 160 179 172 140 161 165 110 136 173 167 170 183 307 338 356 12 337 319 305 288 255 319 140 161 159 168 172 192 213 223 218 224 234 241 250 264 280
151 143 135 133 132 160 138 193 144 161 178 141 138 123 115 137 175 132 74 351 355 331 312 308 283 273 327 357 313 129 172 163 168 184 209 227 246 240 246 255 259 266 275
148 137 148 117 110 117 136 153 140 179 176 142 174 168 173 166 134 138 97 21 38 290 320 305 259 268 280 353 294 234 162 182 176 192 199 214 228 238 251 253 258 266 278
151 142 142 124 116 104 100 94 110 123 148 178 179 141 145 168 163 137 141 157 160 257 245 247 251 251 241 250 236 217 255 193 193 192 214 222 222 232 237 258 258 262 271
148 141 129 131 117 113 96 89 52 90 134 161 162 161 168 206 126 96 125 83 143 51 19 321 221 259 149 178 259 215 211 273 149 208 220 234 229 236 234 235 257 249 251
150 153 139 140 155 130 92 105 101 123 149 146 243 168 156 171 112 116 78 79 116 57 357 325 299 27 23 23 64 31 357 319 266 244 231 232 226 235 239 231 242 243 300
154 164 144 160 155 137 122 135 144 167 140 149 229 157 102 130 134 103 111 144 78 53 18 7 26 25 7 17 104 90 24 330 310 231 234 253 238 236 267 314 353 358 49
155 160 159 157 149 137 127 113 72 59 40 52 26 355 41 21 42 137 136 104 69 81 51 358 30 28 18 332 58 113 36 248 326 351 22 19 26 13 55 64 76 88 109
162 158 162 153 151 146 148 127 146 159 156 199 172 221 247 65 18 184 167 146 90 106 52 29 44 8 55 22 42 56 54 195 144 7 47 29 82 57 31 36 356 225 156
159 163 164 156 159 152 156 156 158 161 176 147 177 220 264 291 20 224 185 168 147 144 62 35 40 42 31 96 69 65 51 18 34 116 100 330 351 50 48 98 238 292 284
159 162 155 162 164 159 157 168 176 167 169 156 200 197 213 233 101 31 146 196 172 134 168 150 280 97 87 98 105 76 121 177 294 111 97 245 285 284 165 277 208 259 291